Flag for Tuvalu Weather past 2 weeks in Funafuti, Tuvalu

Now
84 °F

Scattered showers. Broken clouds.


Feels Like: 96 °F
Forecast: 82 / 84 °F
Wind: 14 mph from East

Location: Funafuti

Current Time: Sep 20, 2014 at 8:44:41 AM

Latest Report: Sep 20, 2014 at 8:00 AM


Visibility: N/A

Pressure: 29.86 "Hg

Humidity: 84%

Dew point: 79 °F

Location of FunafutiLocation

Historic Weather in Funafuti — Graph

°F

Funafuti temperature yesterday

Maximum temperature yesterday: 88 °F (at 12:00 PM)
Minimum temperature yesterday: 81 °F (at 1:00 AM)
Average temperature yesterday: 84 °F

Past Weeks' High & Low Weather Summary

 TemperatureHumidityPressure
High90 °F (Sep 7, 1:00 PM)100% (Sep 5, 10:00 AM)29.95 "Hg (Sep 5, 10:00 AM)
Low77 °F (Sep 5, 10:00 AM)66% (Sep 10, 10:00 AM)29.74 "Hg (Sep 5, 2:00 PM)
Average84 °F82%29.83 "Hg
* Reported Sep 5 8:00 AM — Sep 20 8:00 AM, Funafuti, Weather by CustomWeather, © 2014

Note: Actual official high and low records may vary slightly from our data, if they occured in-between our weather recording intervals... More about our weather records

Advertising

Funafuti weather history for previous 24 hours

 ConditionsComfort  
Time TempWeatherWind HumidityBarometerVisibility
8:00 AM
Sep 20
84 °FScattered showers. Broken clouds.14 mph84%29.86 "HgN/A
7:00 AM84 °FScattered showers. Broken clouds.15 mph79%29.83 "HgN/A
6:00 AM82 °FBroken clouds.10 mph84%29.80 "HgN/A
5:00 AM82 °FPassing clouds.15 mph84%29.74 "HgN/A
2:00 AM82 °FPassing clouds.15 mph84%29.80 "HgN/A
1:00 AM82 °FPassing clouds.12 mph84%29.83 "HgN/A
12:00 AM84 °FPassing clouds.3 mph74%29.83 "HgN/A
11:00 PM
Sep 19
84 °FPassing clouds.14 mph79%29.89 "HgN/A
10:00 PM84 °FPassing clouds.16 mph79%29.86 "HgN/A
9:00 PM84 °FPassing clouds.15 mph84%29.86 "HgN/A
8:00 PM82 °FPassing clouds.15 mph84%29.83 "HgN/A
7:00 PM84 °FPassing clouds.13 mph79%29.83 "HgN/A
6:00 PM84 °FPassing clouds.14 mph84%29.80 "HgN/A
5:00 PM86 °FScattered clouds.10 mph75%29.80 "HgN/A
3:00 PM88 °FScattered clouds.12 mph75%29.77 "HgN/A
2:00 PM88 °FScattered clouds.12 mph70%29.80 "HgN/A
1:00 PM88 °FScattered clouds.12 mph75%29.83 "HgN/A
12:00 PM88 °FBroken clouds.13 mph70%29.86 "HgN/A
11:00 AM86 °FBroken clouds.12 mph75%29.86 "HgN/A
9:00 AM86 °FBroken clouds.12 mph75%29.89 "HgN/A
8:00 AM84 °FBroken clouds.12 mph84%29.89 "HgN/A
Weather by CustomWeather, © 2014

See weather overviewHow to use our weather pages